SCP
0 0 0 0 0 0 0 0 0 0 0 0 0 0 0 0 0 0 0 0 0 0 0 0 0 0 0 0 0 0 0 0 0 0 0 0 0 0 0 0 0 0 0
0 0 0 0 0 0 0 0 0 0 0 0 0 0 0 0 0 0 0 0 0 0 0 0 0 0 0 0 0 0 0 0 0 0 0 0 0 -0 0 0 0 0 0
0 0 0 0 0 0 0 0 0 0 0 0 0 0 0 0 0 0 0 0 0 0 0 0 0 0 0 0 0 0 0 0 0 0 0 0 0 0 0 -0 -0 0 0
0 0 0 0 0 0 0 0 0 0 0 0 0 0 0 0 0 0 0 0 0 0 0 0 0 0 0 0 0 0 0 0 0 0 0 0 0 0 0 0 0 0 0
0 0 0 0 0 0 0 0 0 0 0 0 0 0 0 0 0 0 0 0 0 0 0 0 0 0 0 0 0 0 0 0 0 0 0 0 0 0 0 0 0 0 0
0 0 0 0 0 0 0 0 0 0 0 0 0 0 0 0 0 0 0 0 0 0 0 0 0 0 0 0 0 0 0 0 0 0 0 0 0 0 0 0 0 0 0
0 0 0 0 0 0 0 0 0 0 0 0 0 0 0 0 0 0 0 0 0 0 0 0 0 0 0 0 0 0 0 0 0 0 0 0 0 0 0 0 0 0 0
0 0 0 0 0 0 0 0 0 0 0 0 0 0 0 0 0 0 0 0 0 0 0 0 0 0 0 0 0 0 0 0 0 0 0 0 0 0 0 0 0 0 0
0 0 0 0 0 0 0 0 0 0 0 0 0 0 0 0 0 0 0 0 0 0 0 0 0 0 0 0 0 0 0 0 0 0 0 0 0 0 0 0 0 0 0
0 0 0 0 0 0 0 0 0 0 0 0 0 0 0 0 0 0 0 0 0 0 0 0 0 0 0 0 0 0 0 0 0 0 0 0 0 0 0 0 0 0 0
0 0 0 0 0 0 0 0 0 0 0 0 0 0 0 0 0 0 0 0 0 0 0 0 0 0 0 0 0 0 0 0 0 0 0 0 0 -0 0 -0 -0 0 0
0 0 0 0 0 0 0 0 0 0 0 0 0 0 0 0 0 0 0 0 0 0 0 0 0 0 0 0 0 0 0 0 0 0 0 0 -0 -0 -0 -0 -0 -0 0
0 0 0 0 0 0 0 0 0 0 0 0 0 0 0 0 0 0 0 0 0 0 0 0 0 0 0 0 0 0 0 0 0 0 0 0 -0 0 0 0 0 0 0
0 0 0 0 0 0 0 0 0 0 0 0 0 0 0 0 0 0 0 0 0 0 0 0 0 0 0 0 0 0 0 0 0 0 0 0 0 0 0 0 0 0 0
0 0 0 0 0 0 0 0 0 0 0 0 0 0 0 0 0 0 0 0 0 0 0 0 0 0 0 0 0 0 0 0 0 0 0 0 0 0 0 0 0 0 0
0 0 0 0 0 0 0 0 0 0 0 0 0 0 0 0 0 0 0 0 0 0 0 0 0 0 0 0 0 0 0 0 0 0 0 0 0 0 0 0 0 0 0
0 0 0 0 0 0 0 0 0 0 0 0 0 0 0 0 0 0 0 0 0 0 0 0 0 0 0 0 0 0 0 0 0 0 0 0 0 0 0 0 0 0 0
0 0 0 0 0 0 0 0 0 0 0 0 0 0 0 0 0 0 0 0 0 0 0 0 0 0 0 0 0 0 0 0 0 0 0 0 0 0 0 0 0 0 0
0 0 0 0 0 0 0 0 0 0 0 0 0 0 0 0 0 0 0 0 0 0 0 0 0 0 0 0 0 0 0 0 0 0 0 0 0 0 0 0 0 0 0
0 0 0 0 0 0 0 0 0 0 0 0 0 0 0 0 0 0 0 0 0 0 0 0 0 0 0 0 0 0 0 0 0 0 0 0 0 0 0 0 0 0 0
0 0 0 0 0 0 0 0 0 0 0 0 0 0 0 0 0 0 0 0 0 0 0 0 0 0 0 0 0 0 0 0 0 0 0 0 0 0 0 0 0 0 0
0 0 0 0 0 0 0 0 0 0 0 0 0 0 0 0 0 0 0 0 0 0 0 0 0 0 0 0 0 0 0 0 0 0 0 0 0 0 0 0 0 0 0
0 0 0 0 0 0 0 0 0 0 0 0 0 0 0 0 0 0 0 0 0 0 0 0 0 0 0 0 0 0 0 0 0 0 0 0 0 0 0 0 0 0 0
0 0 0 0 0 0 0 0 0 0 0 0 0 0 0 0 0 0 0 0 0 0 0 0 0 0 0 0 0 0 0 0 0 0 0 0 0 0 0 0 0 0 0
0 0 0 0 0 0 0 0 0 0 0 0 0 0 0 0 0 0 0 0 0 0 0 0 0 0 0 0 0 0 0 0 0 0 0 0 0 0 0 0 0 0 0
0 0 0 0 0 0 0 0 0 0 0 0 0 0 0 0 0 0 0 0 0 0 0 0 0 0 0 0 0 0 0 0 0 0 0 0 0 0 0 0 0 0 0
Wind_Speed_500mb
61 54 49 45 39 40 38 34 32 30 29 27 21 21 19 14 13 15 18 22 20 12 8 5 7 12 9 8 5 7 7 7 7 6 4 3 4 6 9 11 11 11 12
63 58 55 47 42 37 36 36 32 26 26 24 23 19 21 16 14 17 18 20 22 19 12 11 11 16 17 16 12 10 14 12 11 11 8 5 4 5 5 7 5 5 5
62 62 49 50 45 41 36 30 28 24 23 23 23 23 23 22 18 19 22 23 24 24 23 25 25 23 20 24 18 15 18 18 17 14 10 6 4 2 6 7 7 3 2
58 54 53 48 46 42 37 34 29 26 25 29 34 31 29 30 27 24 25 26 25 25 25 25 24 24 21 16 7 6 11 15 13 13 10 5 6 5 10 13 10 5 4
52 52 48 45 43 44 40 37 33 29 26 26 28 34 35 30 27 25 25 25 25 23 22 21 21 24 21 17 19 16 6 9 9 8 6 3 9 17 17 11 10 10 4
42 46 49 40 36 44 40 37 35 31 29 28 28 29 29 28 27 27 27 25 24 21 21 21 23 22 20 8 5 5 8 8 10 9 6 4 11 7 9 21 30 30 34
33 43 43 39 36 43 44 40 37 34 34 32 30 30 29 29 28 27 25 22 20 20 21 23 24 23 13 4 9 13 14 16 18 14 10 6 16 29 36 31 27 21 12
27 31 40 42 38 40 45 43 39 36 36 35 33 31 30 29 27 26 22 20 20 21 27 30 23 10 5 16 14 18 18 21 19 17 14 14 29 32 29 18 21 12 17
26 30 32 40 45 49 50 46 40 37 36 36 34 33 31 28 27 25 22 25 28 28 30 27 12 8 19 23 19 18 22 20 17 27 37 38 38 36 29 22 17 20 17
23 32 35 38 44 50 52 48 43 38 37 37 36 33 31 29 28 29 27 27 28 24 26 19 13 11 24 28 26 22 25 27 29 36 43 34 25 28 20 15 22 23 26
30 33 41 42 42 45 47 46 44 40 40 39 37 33 31 30 29 27 26 24 22 23 22 18 19 25 24 30 31 27 29 38 40 42 36 29 38 22 30 35 31 28 30
45 42 43 42 41 43 47 46 44 43 41 40 37 35 32 29 28 27 26 24 23 23 20 19 28 32 33 32 33 36 35 38 43 45 35 33 28 27 37 37 32 38 38
48 42 44 43 46 46 45 45 44 42 41 41 38 35 32 29 27 27 25 22 23 23 12 26 33 34 39 37 36 36 34 43 43 38 32 27 25 30 33 40 37 38 36
54 49 44 45 45 43 47 47 43 42 42 42 38 36 32 30 28 27 25 24 23 21 24 32 37 37 39 42 38 37 32 25 24 27 33 17 19 32 29 33 34 35 35
57 53 48 44 45 36 48 47 47 46 45 42 40 37 34 32 31 29 27 26 25 25 30 36 34 43 43 40 43 39 45 37 29 23 20 15 14 25 25 31 29 29 31
58 59 55 51 46 45 51 51 49 46 45 44 40 37 35 34 33 31 29 27 27 28 34 39 41 47 46 46 45 44 41 35 30 27 15 11 20 29 29 26 29 26 28
62 64 62 59 52 47 51 52 51 47 46 45 42 40 38 36 35 33 31 29 28 31 38 48 48 50 49 49 47 44 39 35 30 24 19 11 12 27 30 27 24 23 21
66 66 67 66 56 50 49 50 50 49 47 46 44 42 41 40 38 35 34 32 32 34 39 48 51 54 51 50 46 40 34 31 24 24 19 15 16 18 19 27 27 24 21
71 68 69 72 66 55 53 48 53 56 53 49 49 46 45 42 40 37 37 35 35 39 44 47 52 52 54 51 47 44 38 34 33 27 23 20 19 16 9 8 9 14 16
72 72 70 71 69 59 50 45 51 55 57 57 52 50 48 45 43 42 42 40 40 43 47 48 50 54 54 53 51 47 42 37 31 27 25 21 18 14 11 9 8 6 4
75 77 77 74 75 73 67 67 67 70 68 59 58 53 49 47 46 47 45 44 45 45 46 49 53 55 56 53 51 43 37 33 31 29 27 23 20 17 15 12 10 8 6
82 82 80 79 83 80 76 70 68 66 67 64 59 56 52 51 49 50 48 47 46 46 48 52 56 59 55 53 49 43 28 28 32 30 28 24 21 19 16 14 13 11 9
79 85 85 84 86 84 78 69 68 66 71 69 69 62 57 54 52 52 50 49 49 49 50 52 54 56 60 59 46 25 16 15 34 32 30 27 25 22 19 17 15 12 12
72 81 85 83 84 80 79 75 77 78 81 78 69 59 57 55 54 54 53 53 52 51 51 51 53 53 54 57 52 40 18 13 21 23 36 32 28 25 22 19 16 15 15
55 71 79 81 79 77 82 77 76 78 78 72 65 60 59 57 57 58 58 57 56 54 51 52 54 54 53 53 47 48 26 22 22 13 21 38 34 30 24 21 19 19 20
40 56 68 75 77 81 82 80 77 79 81 76 69 66 62 61 61 62 61 60 57 55 56 55 53 54 52 51 47 41 36 26 27 23 18 30 32 29 27 25 24 24 25
Wind_Direction_500mb
180 178 186 183 176 174 169 166 169 171 170 173 177 180 165 161 150 153 152 146 134 140 165 197 224 243 245 256 241 229 222 217 210 209 178 110 78 47 58 55 53 54 61
178 181 188 185 181 182 184 185 186 187 193 194 194 193 185 189 197 200 199 195 195 210 221 256 271 281 290 277 255 235 230 224 222 218 215 216 293 294 345 339 356 22 47
184 184 185 189 191 190 195 202 203 205 213 227 232 222 221 232 250 244 238 234 238 245 255 268 276 291 293 287 281 268 249 233 225 221 220 209 320 322 285 310 300 297 266
188 186 192 193 195 198 200 208 213 218 225 233 239 236 239 250 255 247 241 237 237 246 257 267 284 285 279 279 266 254 268 231 217 223 227 221 276 276 300 304 292 293 223
193 197 199 200 198 203 205 212 219 227 236 241 238 239 243 245 247 245 242 247 251 255 263 265 263 270 275 275 290 290 254 211 193 195 197 191 273 289 307 321 239 194 147
198 204 211 205 199 210 211 219 226 233 242 240 235 233 232 232 234 236 241 241 251 257 255 261 264 270 279 323 41 117 148 159 155 135 220 243 244 250 102 108 108 130 115
207 211 208 200 203 214 218 223 232 239 241 238 234 233 232 233 233 238 242 246 244 247 253 257 263 277 277 242 126 146 147 152 159 170 161 116 107 113 114 117 117 129 128
218 220 213 208 206 211 224 228 233 238 243 239 235 233 233 236 236 235 236 242 249 256 259 267 272 262 180 113 130 147 154 162 165 168 151 135 122 117 120 126 110 113 145
222 226 228 226 223 224 224 227 229 235 242 242 236 232 233 235 235 236 237 249 256 257 264 271 248 189 139 134 145 149 159 165 172 136 125 124 119 111 96 93 79 109 111
242 237 236 238 235 238 233 228 230 235 242 242 240 234 230 229 237 247 248 252 258 264 265 239 219 170 141 151 151 157 169 146 136 135 129 120 129 99 96 83 68 61 61
221 262 249 241 239 238 230 229 231 235 238 240 239 234 233 237 239 240 241 246 253 249 249 234 177 142 139 152 160 160 155 142 141 136 121 120 102 96 86 82 78 80 79
229 235 247 244 241 234 230 228 229 233 236 238 235 235 236 234 234 236 244 247 230 230 229 191 156 142 141 152 162 157 151 147 129 111 109 105 99 90 93 97 92 93 92
234 224 231 233 237 232 232 232 231 231 232 233 231 230 231 232 233 234 232 227 223 232 206 160 148 146 151 155 162 159 157 140 133 123 105 91 89 90 85 87 85 84 84
232 231 227 226 225 228 232 232 233 233 232 232 230 230 229 231 228 224 220 216 214 200 180 166 160 152 158 162 165 163 159 173 166 146 118 121 80 90 88 92 93 88 86
234 230 224 219 222 233 236 235 232 231 233 232 229 228 226 227 226 226 222 219 214 201 182 178 164 157 163 167 167 171 167 157 166 177 149 148 117 99 102 100 95 93 92
236 233 227 221 225 231 237 237 238 234 230 231 229 228 227 225 228 229 226 221 211 196 181 182 164 160 165 171 171 174 167 162 174 161 179 175 142 120 111 110 100 93 92
239 236 232 226 226 232 244 232 237 236 233 232 230 228 225 226 227 228 228 221 209 195 182 179 175 172 171 171 171 170 169 176 190 207 220 216 207 160 123 112 116 111 104
242 241 236 235 227 230 232 237 242 239 234 233 231 228 227 226 225 226 226 218 205 193 184 182 185 180 178 182 185 189 197 207 226 237 236 229 212 210 185 128 117 114 109
243 244 240 234 237 230 232 225 235 238 236 235 232 228 226 226 225 225 223 216 205 195 188 187 187 190 180 182 189 194 202 211 224 233 228 212 197 196 189 178 166 156 133
242 244 244 239 230 229 229 240 243 238 235 232 230 228 226 225 225 223 218 214 207 199 194 192 194 191 195 197 198 201 207 211 211 206 203 197 190 192 193 188 184 200 197
241 241 239 233 227 232 231 227 221 232 232 231 229 225 225 224 223 221 218 215 211 206 201 196 195 198 197 201 202 191 189 190 190 192 190 187 190 195 201 202 206 218 232
242 241 236 233 230 233 241 233 231 227 229 232 230 226 224 223 221 220 217 215 212 204 201 200 201 194 198 194 194 179 176 190 195 194 193 190 194 200 204 208 211 220 232
238 237 237 234 234 236 233 230 230 226 228 225 224 223 222 221 219 219 216 214 211 208 205 203 203 205 196 190 189 178 169 198 197 203 200 200 201 205 210 215 219 229 240
239 236 236 237 238 235 226 229 231 230 228 227 227 226 224 222 219 218 216 214 213 212 210 210 207 208 207 198 192 197 194 193 188 196 208 208 211 213 216 221 226 236 243
241 236 235 235 235 232 228 229 233 232 232 234 231 226 226 223 221 219 217 215 213 213 212 214 210 207 207 208 208 211 222 222 212 205 208 213 216 217 220 225 234 243 249
243 239 236 235 233 229 229 230 235 236 235 232 228 226 225 224 222 220 218 215 215 214 213 213 212 211 210 212 219 224 236 238 229 223 224 213 217 220 224 231 237 247 252
Wind_Speed_850mb
61 54 49 45 39 40 38 34 32 30 29 27 21 21 19 14 13 15 18 22 20 12 8 5 7 12 9 8 5 7 7 7 7 6 4 3 4 6 9 11 11 11 12
63 58 55 47 42 37 36 36 32 26 26 24 23 19 21 16 14 17 18 20 22 19 12 11 11 16 17 16 12 10 14 12 11 11 8 5 4 5 5 7 5 5 5
62 62 49 50 45 41 36 30 28 24 23 23 23 23 23 22 18 19 22 23 24 24 23 25 25 23 20 24 18 15 18 18 17 14 10 6 4 2 6 7 7 3 2
58 54 53 48 46 42 37 34 29 26 25 29 34 31 29 30 27 24 25 26 25 25 25 25 24 24 21 16 7 6 11 15 13 13 10 5 6 5 10 13 10 5 4
52 52 48 45 43 44 40 37 33 29 26 26 28 34 35 30 27 25 25 25 25 23 22 21 21 24 21 17 19 16 6 9 9 8 6 3 9 17 17 11 10 10 4
42 46 49 40 36 44 40 37 35 31 29 28 28 29 29 28 27 27 27 25 24 21 21 21 23 22 20 8 5 5 8 8 10 9 6 4 11 7 9 21 30 30 34
33 43 43 39 36 43 44 40 37 34 34 32 30 30 29 29 28 27 25 22 20 20 21 23 24 23 13 4 9 13 14 16 18 14 10 6 16 29 36 31 27 21 12
27 31 40 42 38 40 45 43 39 36 36 35 33 31 30 29 27 26 22 20 20 21 27 30 23 10 5 16 14 18 18 21 19 17 14 14 29 32 29 18 21 12 17
26 30 32 40 45 49 50 46 40 37 36 36 34 33 31 28 27 25 22 25 28 28 30 27 12 8 19 23 19 18 22 20 17 27 37 38 38 36 29 22 17 20 17
23 32 35 38 44 50 52 48 43 38 37 37 36 33 31 29 28 29 27 27 28 24 26 19 13 11 24 28 26 22 25 27 29 36 43 34 25 28 20 15 22 23 26
30 33 41 42 42 45 47 46 44 40 40 39 37 33 31 30 29 27 26 24 22 23 22 18 19 25 24 30 31 27 29 38 40 42 36 29 38 22 30 35 31 28 30
45 42 43 42 41 43 47 46 44 43 41 40 37 35 32 29 28 27 26 24 23 23 20 19 28 32 33 32 33 36 35 38 43 45 35 33 28 27 37 37 32 38 38
48 42 44 43 46 46 45 45 44 42 41 41 38 35 32 29 27 27 25 22 23 23 12 26 33 34 39 37 36 36 34 43 43 38 32 27 25 30 33 40 37 38 36
54 49 44 45 45 43 47 47 43 42 42 42 38 36 32 30 28 27 25 24 23 21 24 32 37 37 39 42 38 37 32 25 24 27 33 17 19 32 29 33 34 35 35
57 53 48 44 45 36 48 47 47 46 45 42 40 37 34 32 31 29 27 26 25 25 30 36 34 43 43 40 43 39 45 37 29 23 20 15 14 25 25 31 29 29 31
58 59 55 51 46 45 51 51 49 46 45 44 40 37 35 34 33 31 29 27 27 28 34 39 41 47 46 46 45 44 41 35 30 27 15 11 20 29 29 26 29 26 28
62 64 62 59 52 47 51 52 51 47 46 45 42 40 38 36 35 33 31 29 28 31 38 48 48 50 49 49 47 44 39 35 30 24 19 11 12 27 30 27 24 23 21
66 66 67 66 56 50 49 50 50 49 47 46 44 42 41 40 38 35 34 32 32 34 39 48 51 54 51 50 46 40 34 31 24 24 19 15 16 18 19 27 27 24 21
71 68 69 72 66 55 53 48 53 56 53 49 49 46 45 42 40 37 37 35 35 39 44 47 52 52 54 51 47 44 38 34 33 27 23 20 19 16 9 8 9 14 16
72 72 70 71 69 59 50 45 51 55 57 57 52 50 48 45 43 42 42 40 40 43 47 48 50 54 54 53 51 47 42 37 31 27 25 21 18 14 11 9 8 6 4
75 77 77 74 75 73 67 67 67 70 68 59 58 53 49 47 46 47 45 44 45 45 46 49 53 55 56 53 51 43 37 33 31 29 27 23 20 17 15 12 10 8 6
82 82 80 79 83 80 76 70 68 66 67 64 59 56 52 51 49 50 48 47 46 46 48 52 56 59 55 53 49 43 28 28 32 30 28 24 21 19 16 14 13 11 9
79 85 85 84 86 84 78 69 68 66 71 69 69 62 57 54 52 52 50 49 49 49 50 52 54 56 60 59 46 25 16 15 34 32 30 27 25 22 19 17 15 12 12
72 81 85 83 84 80 79 75 77 78 81 78 69 59 57 55 54 54 53 53 52 51 51 51 53 53 54 57 52 40 18 13 21 23 36 32 28 25 22 19 16 15 15
55 71 79 81 79 77 82 77 76 78 78 72 65 60 59 57 57 58 58 57 56 54 51 52 54 54 53 53 47 48 26 22 22 13 21 38 34 30 24 21 19 19 20
40 56 68 75 77 81 82 80 77 79 81 76 69 66 62 61 61 62 61 60 57 55 56 55 53 54 52 51 47 41 36 26 27 23 18 30 32 29 27 25 24 24 25
Wind_Direction_850mb
180 178 186 183 176 174 169 166 169 171 170 173 177 180 165 161 150 153 152 146 134 140 165 197 224 243 245 256 241 229 222 217 210 209 178 110 78 47 58 55 53 54 61
178 181 188 185 181 182 184 185 186 187 193 194 194 193 185 189 197 200 199 195 195 210 221 256 271 281 290 277 255 235 230 224 222 218 215 216 293 294 345 339 356 22 47
184 184 185 189 191 190 195 202 203 205 213 227 232 222 221 232 250 244 238 234 238 245 255 268 276 291 293 287 281 268 249 233 225 221 220 209 320 322 285 310 300 297 266
188 186 192 193 195 198 200 208 213 218 225 233 239 236 239 250 255 247 241 237 237 246 257 267 284 285 279 279 266 254 268 231 217 223 227 221 276 276 300 304 292 293 223
193 197 199 200 198 203 205 212 219 227 236 241 238 239 243 245 247 245 242 247 251 255 263 265 263 270 275 275 290 290 254 211 193 195 197 191 273 289 307 321 239 194 147
198 204 211 205 199 210 211 219 226 233 242 240 235 233 232 232 234 236 241 241 251 257 255 261 264 270 279 323 41 117 148 159 155 135 220 243 244 250 102 108 108 130 115
207 211 208 200 203 214 218 223 232 239 241 238 234 233 232 233 233 238 242 246 244 247 253 257 263 277 277 242 126 146 147 152 159 170 161 116 107 113 114 117 117 129 128
218 220 213 208 206 211 224 228 233 238 243 239 235 233 233 236 236 235 236 242 249 256 259 267 272 262 180 113 130 147 154 162 165 168 151 135 122 117 120 126 110 113 145
222 226 228 226 223 224 224 227 229 235 242 242 236 232 233 235 235 236 237 249 256 257 264 271 248 189 139 134 145 149 159 165 172 136 125 124 119 111 96 93 79 109 111
242 237 236 238 235 238 233 228 230 235 242 242 240 234 230 229 237 247 248 252 258 264 265 239 219 170 141 151 151 157 169 146 136 135 129 120 129 99 96 83 68 61 61
221 262 249 241 239 238 230 229 231 235 238 240 239 234 233 237 239 240 241 246 253 249 249 234 177 142 139 152 160 160 155 142 141 136 121 120 102 96 86 82 78 80 79
229 235 247 244 241 234 230 228 229 233 236 238 235 235 236 234 234 236 244 247 230 230 229 191 156 142 141 152 162 157 151 147 129 111 109 105 99 90 93 97 92 93 92
234 224 231 233 237 232 232 232 231 231 232 233 231 230 231 232 233 234 232 227 223 232 206 160 148 146 151 155 162 159 157 140 133 123 105 91 89 90 85 87 85 84 84
232 231 227 226 225 228 232 232 233 233 232 232 230 230 229 231 228 224 220 216 214 200 180 166 160 152 158 162 165 163 159 173 166 146 118 121 80 90 88 92 93 88 86
234 230 224 219 222 233 236 235 232 231 233 232 229 228 226 227 226 226 222 219 214 201 182 178 164 157 163 167 167 171 167 157 166 177 149 148 117 99 102 100 95 93 92
236 233 227 221 225 231 237 237 238 234 230 231 229 228 227 225 228 229 226 221 211 196 181 182 164 160 165 171 171 174 167 162 174 161 179 175 142 120 111 110 100 93 92
239 236 232 226 226 232 244 232 237 236 233 232 230 228 225 226 227 228 228 221 209 195 182 179 175 172 171 171 171 170 169 176 190 207 220 216 207 160 123 112 116 111 104
242 241 236 235 227 230 232 237 242 239 234 233 231 228 227 226 225 226 226 218 205 193 184 182 185 180 178 182 185 189 197 207 226 237 236 229 212 210 185 128 117 114 109
243 244 240 234 237 230 232 225 235 238 236 235 232 228 226 226 225 225 223 216 205 195 188 187 187 190 180 182 189 194 202 211 224 233 228 212 197 196 189 178 166 156 133
242 244 244 239 230 229 229 240 243 238 235 232 230 228 226 225 225 223 218 214 207 199 194 192 194 191 195 197 198 201 207 211 211 206 203 197 190 192 193 188 184 200 197
241 241 239 233 227 232 231 227 221 232 232 231 229 225 225 224 223 221 218 215 211 206 201 196 195 198 197 201 202 191 189 190 190 192 190 187 190 195 201 202 206 218 232
242 241 236 233 230 233 241 233 231 227 229 232 230 226 224 223 221 220 217 215 212 204 201 200 201 194 198 194 194 179 176 190 195 194 193 190 194 200 204 208 211 220 232
238 237 237 234 234 236 233 230 230 226 228 225 224 223 222 221 219 219 216 214 211 208 205 203 203 205 196 190 189 178 169 198 197 203 200 200 201 205 210 215 219 229 240
239 236 236 237 238 235 226 229 231 230 228 227 227 226 224 222 219 218 216 214 213 212 210 210 207 208 207 198 192 197 194 193 188 196 208 208 211 213 216 221 226 236 243
241 236 235 235 235 232 228 229 233 232 232 234 231 226 226 223 221 219 217 215 213 213 212 214 210 207 207 208 208 211 222 222 212 205 208 213 216 217 220 225 234 243 249
243 239 236 235 233 229 229 230 235 236 235 232 228 226 225 224 222 220 218 215 215 214 213 213 212 211 210 212 219 224 236 238 229 223 224 213 217 220 224 231 237 247 252